Year,Month,Day,Hour,Minute,Value (Times are PST for temperature in C)
2008,09,29,00,00,10.30
2008,09,29,00,01,10.30
2008,09,29,00,02,10.30
2008,09,29,00,03,10.30
2008,09,29,00,04,10.30
2008,09,29,00,05,10.20
2008,09,29,00,06,10.20
2008,09,29,00,07,10.20
2008,09,29,00,08,10.20
2008,09,29,00,09,10.10
2008,09,29,00,10,10.10
2008,09,29,00,11,10.10
2008,09,29,00,12,10.10
2008,09,29,00,13,10.10
2008,09,29,00,14,10.10
2008,09,29,00,15,10.00
2008,09,29,00,16,9.90
2008,09,29,00,17,9.90
2008,09,29,00,18,9.90
2008,09,29,00,19,9.90
2008,09,29,00,20,9.90
2008,09,29,00,21,9.90
2008,09,29,00,22,9.90
2008,09,29,00,23,9.90
2008,09,29,00,24,9.90
2008,09,29,00,25,9.90
2008,09,29,00,26,9.90
2008,09,29,00,27,9.90
2008,09,29,00,28,9.90
2008,09,29,00,29,9.90
2008,09,29,00,30,10.00
2008,09,29,00,31,10.10
2008,09,29,00,32,10.10
2008,09,29,00,33,10.10
2008,09,29,00,34,10.10
2008,09,29,00,35,10.10
2008,09,29,00,36,10.20
2008,09,29,00,37,10.20
2008,09,29,00,38,10.20
2008,09,29,00,39,10.20
2008,09,29,00,40,10.30
2008,09,29,00,41,10.30
2008,09,29,00,42,10.30
2008,09,29,00,43,10.30
2008,09,29,00,44,10.20
2008,09,29,00,45,10.20
2008,09,29,00,46,10.20
2008,09,29,00,47,10.20
2008,09,29,00,48,10.10
2008,09,29,00,49,10.10
2008,09,29,00,50,10.10
2008,09,29,00,51,10.00
2008,09,29,00,52,9.90
2008,09,29,00,53,9.90
2008,09,29,00,54,9.90
2008,09,29,00,55,9.90
2008,09,29,00,56,9.90
2008,09,29,00,57,9.90
2008,09,29,00,58,9.90
2008,09,29,00,59,10.00
2008,09,29,01,00,10.10
2008,09,29,01,01,10.10
2008,09,29,01,02,10.10
2008,09,29,01,03,10.10
2008,09,29,01,04,10.10
2008,09,29,01,05,10.20
2008,09,29,01,06,10.20
2008,09,29,01,07,10.20
2008,09,29,01,08,10.30
2008,09,29,01,09,10.30
2008,09,29,01,10,10.40
2008,09,29,01,11,10.40
2008,09,29,01,12,10.40
2008,09,29,01,13,10.40
2008,09,29,01,14,10.40
2008,09,29,01,15,10.40
2008,09,29,01,16,10.50
2008,09,29,01,17,10.60
2008,09,29,01,18,10.60
2008,09,29,01,19,10.60
2008,09,29,01,20,10.60
2008,09,29,01,21,10.60
2008,09,29,01,22,10.60
2008,09,29,01,23,10.60
2008,09,29,01,24,10.60
2008,09,29,01,25,10.60
2008,09,29,01,26,10.50
2008,09,29,01,27,10.40
2008,09,29,01,28,10.40
2008,09,29,01,29,10.40
2008,09,29,01,30,10.40
2008,09,29,01,31,10.30
2008,09,29,01,32,10.30
2008,09,29,01,33,10.30
2008,09,29,01,34,10.30
2008,09,29,01,35,10.30
2008,09,29,01,36,10.30
2008,09,29,01,37,10.30
2008,09,29,01,38,10.30
2008,09,29,01,39,10.30
2008,09,29,01,40,10.30
2008,09,29,01,41,10.30
2008,09,29,01,42,10.30
2008,09,29,01,43,10.30
2008,09,29,01,44,10.30
2008,09,29,01,45,10.30
2008,09,29,01,46,10.30
2008,09,29,01,47,10.30
2008,09,29,01,48,10.20
2008,09,29,01,49,10.20
2008,09,29,01,50,10.20
2008,09,29,01,51,10.10
2008,09,29,01,52,10.10
2008,09,29,01,53,10.10
2008,09,29,01,54,10.10
2008,09,29,01,55,10.10
2008,09,29,01,56,10.10
2008,09,29,01,57,10.00
2008,09,29,01,58,9.90
2008,09,29,01,59,9.90
2008,09,29,02,00,9.90
2008,09,29,02,01,9.90
2008,09,29,02,02,9.90
2008,09,29,02,03,9.90
2008,09,29,02,04,9.80
2008,09,29,02,05,9.80
2008,09,29,02,06,9.80
2008,09,29,02,07,9.80
2008,09,29,02,08,9.80
2008,09,29,02,09,9.70
2008,09,29,02,10,9.70
2008,09,29,02,11,9.70
2008,09,29,02,12,9.70
2008,09,29,02,13,9.70
2008,09,29,02,14,9.70
2008,09,29,02,15,9.70
2008,09,29,02,16,9.70
2008,09,29,02,17,9.70
2008,09,29,02,18,9.70
2008,09,29,02,19,9.70
2008,09,29,02,20,9.70
2008,09,29,02,21,9.70
2008,09,29,02,22,9.70
2008,09,29,02,23,9.70
2008,09,29,02,24,9.70
2008,09,29,02,25,9.70
2008,09,29,02,26,9.70
2008,09,29,02,27,9.70
2008,09,29,02,28,9.80
2008,09,29,02,29,9.80
2008,09,29,02,30,9.80
2008,09,29,02,31,9.80
2008,09,29,02,32,9.80
2008,09,29,02,33,9.80
2008,09,29,02,34,9.90
2008,09,29,02,35,9.90
2008,09,29,02,36,9.90
2008,09,29,02,37,9.90
2008,09,29,02,38,9.90
2008,09,29,02,39,10.00
2008,09,29,02,40,10.10
2008,09,29,02,41,10.10
2008,09,29,02,42,10.10
2008,09,29,02,43,10.00
2008,09,29,02,44,9.90
2008,09,29,02,45,9.90
2008,09,29,02,46,9.90
2008,09,29,02,47,9.90
2008,09,29,02,48,9.90
2008,09,29,02,49,9.90
2008,09,29,02,50,9.90
2008,09,29,02,51,9.90
2008,09,29,02,52,9.90
2008,09,29,02,53,9.90
2008,09,29,02,54,9.90
2008,09,29,02,55,9.90
2008,09,29,02,56,9.90
2008,09,29,02,57,9.90
2008,09,29,02,58,9.90
2008,09,29,02,59,9.90
2008,09,29,03,00,9.90
2008,09,29,03,01,9.90
2008,09,29,03,02,9.90
2008,09,29,03,03,9.90
2008,09,29,03,04,9.90
2008,09,29,03,05,9.90
2008,09,29,03,06,9.90
2008,09,29,03,07,10.00
2008,09,29,03,08,10.10
2008,09,29,03,09,10.10
2008,09,29,03,10,10.10
2008,09,29,03,11,10.20
2008,09,29,03,12,10.30
2008,09,29,03,13,10.30
2008,09,29,03,14,10.40
2008,09,29,03,15,10.40
2008,09,29,03,16,10.40
2008,09,29,03,17,10.40
2008,09,29,03,18,10.40
2008,09,29,03,19,10.40
2008,09,29,03,20,10.50
2008,09,29,03,21,10.60
2008,09,29,03,22,10.60
2008,09,29,03,23,10.60
2008,09,29,03,24,10.60
2008,09,29,03,25,10.50
2008,09,29,03,26,10.40
2008,09,29,03,27,10.40
2008,09,29,03,28,10.40
2008,09,29,03,29,10.40
2008,09,29,03,30,10.40
2008,09,29,03,31,10.40
2008,09,29,03,32,10.40
2008,09,29,03,33,10.40
2008,09,29,03,34,10.40
2008,09,29,03,35,10.40
2008,09,29,03,36,10.40
2008,09,29,03,37,10.30
2008,09,29,03,38,10.30
2008,09,29,03,39,10.20
2008,09,29,03,40,10.20
2008,09,29,03,41,10.20
2008,09,29,03,42,10.10
2008,09,29,03,43,10.10
2008,09,29,03,44,10.10
2008,09,29,03,45,10.10
2008,09,29,03,46,10.10
2008,09,29,03,47,10.10
2008,09,29,03,48,10.10
2008,09,29,03,49,10.10
2008,09,29,03,50,10.10
2008,09,29,03,51,10.10
2008,09,29,03,52,10.10
2008,09,29,03,53,10.00
2008,09,29,03,54,9.90
2008,09,29,03,55,9.90
2008,09,29,03,56,9.90
2008,09,29,03,57,9.90
2008,09,29,03,58,9.90
2008,09,29,03,59,9.90
2008,09,29,04,00,9.90
2008,09,29,04,01,9.90
2008,09,29,04,02,9.90
2008,09,29,04,03,10.00
2008,09,29,04,04,10.10
2008,09,29,04,05,10.10
2008,09,29,04,06,10.10
2008,09,29,04,07,10.10
2008,09,29,04,08,10.10
2008,09,29,04,09,10.10
2008,09,29,04,10,10.10
2008,09,29,04,11,10.10
2008,09,29,04,12,10.10
2008,09,29,04,13,10.10
2008,09,29,04,14,10.10
2008,09,29,04,15,10.10
2008,09,29,04,16,10.10
2008,09,29,04,17,10.10
2008,09,29,04,18,10.10
2008,09,29,04,19,10.10
2008,09,29,04,20,10.20
2008,09,29,04,21,10.20
2008,09,29,04,22,10.30
2008,09,29,04,23,10.40
2008,09,29,04,24,10.40
2008,09,29,04,25,10.50
2008,09,29,04,26,10.60
2008,09,29,04,27,10.60
2008,09,29,04,28,10.60
2008,09,29,04,29,10.70
2008,09,29,04,30,10.80
2008,09,29,04,31,10.80
2008,09,29,04,32,10.90
2008,09,29,04,33,10.90
2008,09,29,04,34,11.00
2008,09,29,04,35,11.10
2008,09,29,04,36,11.10
2008,09,29,04,37,11.20
2008,09,29,04,38,11.30
2008,09,29,04,39,11.40
2008,09,29,04,40,11.40
2008,09,29,04,41,11.50
2008,09,29,04,42,11.60
2008,09,29,04,43,11.60
2008,09,29,04,44,11.60
2008,09,29,04,45,11.60
2008,09,29,04,46,11.80
2008,09,29,04,47,11.80
2008,09,29,04,48,11.90
2008,09,29,04,49,12.00
2008,09,29,04,50,12.00
2008,09,29,04,51,12.10
2008,09,29,04,52,12.10
2008,09,29,04,53,12.20
2008,09,29,04,54,12.20
2008,09,29,04,55,12.20
2008,09,29,04,56,12.30
2008,09,29,04,57,12.30
2008,09,29,04,58,12.30
2008,09,29,04,59,12.40
2008,09,29,05,00,12.50
2008,09,29,05,01,12.50
2008,09,29,05,02,12.50
2008,09,29,05,03,12.50
2008,09,29,05,04,12.60
2008,09,29,05,05,12.60
2008,09,29,05,06,12.70
2008,09,29,05,07,12.70
2008,09,29,05,08,12.70
2008,09,29,05,09,12.80
2008,09,29,05,10,12.80
2008,09,29,05,11,12.80
2008,09,29,05,12,12.80
2008,09,29,05,13,12.80
2008,09,29,05,14,12.80
2008,09,29,05,15,12.80
2008,09,29,05,16,12.80
2008,09,29,05,17,12.80
2008,09,29,05,18,12.80
2008,09,29,05,19,12.80
2008,09,29,05,20,12.80
2008,09,29,05,21,12.80
2008,09,29,05,22,12.80
2008,09,29,05,23,12.80
2008,09,29,05,24,12.80
2008,09,29,05,25,12.80
2008,09,29,05,26,12.80
2008,09,29,05,27,12.70
2008,09,29,05,28,12.70
2008,09,29,05,29,12.70
2008,09,29,05,30,12.70
2008,09,29,05,31,12.70
2008,09,29,05,32,12.70
2008,09,29,05,33,12.70
2008,09,29,05,34,12.70
2008,09,29,05,35,12.70
2008,09,29,05,36,12.70
2008,09,29,05,37,12.70
2008,09,29,05,38,12.70
2008,09,29,05,39,12.70
2008,09,29,05,40,12.70
2008,09,29,05,41,12.60
2008,09,29,05,42,12.60
2008,09,29,05,43,12.50
2008,09,29,05,44,12.40
2008,09,29,05,45,12.40
2008,09,29,05,46,12.40
2008,09,29,05,47,12.30
2008,09,29,05,48,12.30
2008,09,29,05,49,12.30
2008,09,29,05,50,12.20
2008,09,29,05,51,12.20
2008,09,29,05,52,12.10
2008,09,29,05,53,12.10
2008,09,29,05,54,12.10
2008,09,29,05,55,12.10
2008,09,29,05,56,12.00
2008,09,29,05,57,12.10
2008,09,29,05,58,12.10
2008,09,29,05,59,12.10
2008,09,29,06,00,12.10
2008,09,29,06,01,12.20
2008,09,29,06,02,12.20
2008,09,29,06,03,12.20
2008,09,29,06,04,12.30
2008,09,29,06,05,12.30
2008,09,29,06,06,12.30
2008,09,29,06,07,12.30
2008,09,29,06,08,12.30
2008,09,29,06,09,12.30
2008,09,29,06,10,12.30
2008,09,29,06,11,12.30
2008,09,29,06,12,12.30
2008,09,29,06,13,12.30
2008,09,29,06,14,12.30
2008,09,29,06,15,12.30
2008,09,29,06,16,12.30
2008,09,29,06,17,12.30
2008,09,29,06,18,12.30
2008,09,29,06,19,12.20
2008,09,29,06,20,12.20
2008,09,29,06,21,12.20
2008,09,29,06,22,12.10
2008,09,29,06,23,12.00
2008,09,29,06,24,12.00
2008,09,29,06,25,12.00
2008,09,29,06,26,11.90
2008,09,29,06,27,11.90
2008,09,29,06,28,11.90
2008,09,29,06,29,12.00
2008,09,29,06,30,12.00
2008,09,29,06,31,12.00
2008,09,29,06,32,12.10
2008,09,29,06,33,12.10
2008,09,29,06,34,12.20
2008,09,29,06,35,12.20
2008,09,29,06,36,12.20
2008,09,29,06,37,12.10
2008,09,29,06,38,12.10
2008,09,29,06,39,12.10
2008,09,29,06,40,12.10
2008,09,29,06,41,12.10
2008,09,29,06,42,12.00
2008,09,29,06,43,12.00
2008,09,29,06,44,12.00
2008,09,29,06,45,12.00
2008,09,29,06,46,12.00
2008,09,29,06,47,12.00
2008,09,29,06,48,12.00
2008,09,29,06,49,12.00
2008,09,29,06,50,12.00
2008,09,29,06,51,12.00
2008,09,29,06,52,12.10
2008,09,29,06,53,12.10
2008,09,29,06,54,12.10
2008,09,29,06,55,12.10
2008,09,29,06,56,12.10
2008,09,29,06,57,12.10
2008,09,29,06,58,12.10
2008,09,29,06,59,12.10
2008,09,29,07,00,12.00
2008,09,29,07,01,12.00
2008,09,29,07,02,11.90
2008,09,29,07,03,11.90
2008,09,29,07,04,11.80
2008,09,29,07,05,11.80
2008,09,29,07,06,11.80
2008,09,29,07,07,11.80
2008,09,29,07,08,11.80
2008,09,29,07,09,11.80
2008,09,29,07,10,11.70
2008,09,29,07,11,11.70
2008,09,29,07,12,11.80
2008,09,29,07,13,11.80
2008,09,29,07,14,11.80
2008,09,29,07,15,11.80
2008,09,29,07,16,11.80
2008,09,29,07,17,11.80
2008,09,29,07,18,11.80
2008,09,29,07,19,11.80
2008,09,29,07,20,11.80
2008,09,29,07,21,11.80
2008,09,29,07,22,11.80
2008,09,29,07,23,11.80
2008,09,29,07,24,11.80
2008,09,29,07,25,11.80
2008,09,29,07,26,11.80
2008,09,29,07,27,11.90
2008,09,29,07,28,11.90
2008,09,29,07,29,11.90
2008,09,29,07,30,11.90
2008,09,29,07,31,11.90
2008,09,29,07,32,11.90
2008,09,29,07,33,11.90
2008,09,29,07,34,12.00
2008,09,29,07,35,12.00
2008,09,29,07,36,12.00
2008,09,29,07,37,12.00
2008,09,29,07,38,12.00
2008,09,29,07,39,12.10
2008,09,29,07,40,12.10
2008,09,29,07,41,12.20
2008,09,29,07,42,12.20
2008,09,29,07,43,12.20
2008,09,29,07,44,12.20
2008,09,29,07,45,12.30
2008,09,29,07,46,12.30
2008,09,29,07,47,12.30
2008,09,29,07,48,12.30
2008,09,29,07,49,12.30
2008,09,29,07,50,12.30
2008,09,29,07,51,12.30
2008,09,29,07,52,12.30
2008,09,29,07,53,12.30
2008,09,29,07,54,12.30
2008,09,29,07,55,12.30
2008,09,29,07,56,12.30
2008,09,29,07,57,12.30
2008,09,29,07,58,12.40
2008,09,29,07,59,12.40
2008,09,29,08,00,12.50
2008,09,29,08,01,12.50
2008,09,29,08,02,12.50
2008,09,29,08,03,12.50
2008,09,29,08,04,12.50
2008,09,29,08,05,12.50
2008,09,29,08,06,12.50
2008,09,29,08,07,12.50
2008,09,29,08,08,12.50
2008,09,29,08,09,12.50
2008,09,29,08,10,12.50
2008,09,29,08,11,12.50
2008,09,29,08,12,12.40
2008,09,29,08,13,12.40
2008,09,29,08,14,12.40
2008,09,29,08,15,12.30
2008,09,29,08,16,12.30
2008,09,29,08,17,12.30
2008,09,29,08,18,12.30
2008,09,29,08,19,12.30
2008,09,29,08,20,12.30
2008,09,29,08,21,12.30
2008,09,29,08,22,12.30
2008,09,29,08,23,12.30
2008,09,29,08,24,12.40
2008,09,29,08,25,12.50
2008,09,29,08,26,12.60
2008,09,29,08,27,12.60
2008,09,29,08,28,12.60
2008,09,29,08,29,12.60
2008,09,29,08,30,12.70
2008,09,29,08,31,12.70
2008,09,29,08,32,12.70
2008,09,29,08,33,12.70
2008,09,29,08,34,12.70
2008,09,29,08,35,12.80
2008,09,29,08,36,12.80
2008,09,29,08,37,12.80
2008,09,29,08,38,12.80
2008,09,29,08,39,12.90
2008,09,29,08,40,13.00
2008,09,29,08,41,13.10
2008,09,29,08,42,13.10
2008,09,29,08,43,13.20
2008,09,29,08,44,13.20
2008,09,29,08,45,13.30
2008,09,29,08,46,13.30
2008,09,29,08,47,13.40
2008,09,29,08,48,13.50
2008,09,29,08,49,13.50
2008,09,29,08,50,13.60
2008,09,29,08,51,13.70
2008,09,29,08,52,13.70
2008,09,29,08,53,13.80
2008,09,29,08,54,13.80
2008,09,29,08,55,13.90
2008,09,29,08,56,14.00
2008,09,29,08,57,14.00
2008,09,29,08,58,14.10
2008,09,29,08,59,14.10
2008,09,29,09,00,14.20
2008,09,29,09,01,14.20
2008,09,29,09,02,14.30
2008,09,29,09,03,14.30
2008,09,29,09,04,14.40
2008,09,29,09,05,14.50
2008,09,29,09,06,14.50
2008,09,29,09,07,14.60
2008,09,29,09,08,14.60
2008,09,29,09,09,14.70
2008,09,29,09,10,14.70
2008,09,29,09,11,14.80
2008,09,29,09,12,14.80
2008,09,29,09,13,14.80
2008,09,29,09,14,14.90
2008,09,29,09,15,15.00
2008,09,29,09,16,15.00
2008,09,29,09,17,15.10
2008,09,29,09,18,15.20
2008,09,29,09,19,15.20
2008,09,29,09,20,15.30
2008,09,29,09,21,15.40
2008,09,29,09,22,15.50
2008,09,29,09,23,15.50
2008,09,29,09,24,15.60
2008,09,29,09,25,15.70
2008,09,29,09,26,15.70
2008,09,29,09,27,15.80
2008,09,29,09,28,15.80
2008,09,29,09,29,15.90
2008,09,29,09,30,16.10
2008,09,29,09,31,16.20
2008,09,29,09,32,16.30
2008,09,29,09,33,16.40
2008,09,29,09,34,16.50
2008,09,29,09,35,16.60
2008,09,29,09,36,16.70
2008,09,29,09,37,16.80
2008,09,29,09,38,17.00
2008,09,29,09,39,17.20
2008,09,29,09,40,17.30
2008,09,29,09,41,17.40
2008,09,29,09,42,17.50
2008,09,29,09,43,17.60
2008,09,29,09,44,17.70
2008,09,29,09,45,17.80
2008,09,29,09,46,17.80
2008,09,29,09,47,17.80
2008,09,29,09,48,17.90
2008,09,29,09,49,17.90
2008,09,29,09,50,17.90
2008,09,29,09,51,18.00
2008,09,29,09,52,18.10
2008,09,29,09,53,18.20
2008,09,29,09,54,18.20
2008,09,29,09,55,18.30
2008,09,29,09,56,18.30
2008,09,29,09,57,18.30
2008,09,29,09,58,18.30
2008,09,29,09,59,18.40
2008,09,29,10,00,18.40
2008,09,29,10,01,18.40
2008,09,29,10,02,18.40
2008,09,29,10,03,18.40
2008,09,29,10,04,18.40
2008,09,29,10,05,18.50
2008,09,29,10,06,18.50
2008,09,29,10,07,18.50
2008,09,29,10,08,18.60
2008,09,29,10,09,18.60
2008,09,29,10,10,18.70
2008,09,29,10,11,18.70
2008,09,29,10,12,18.70
2008,09,29,10,13,18.80
2008,09,29,10,14,18.90
2008,09,29,10,15,18.90
2008,09,29,10,16,19.00
2008,09,29,10,17,19.10
2008,09,29,10,18,19.10
2008,09,29,10,19,19.20
2008,09,29,10,20,19.30
2008,09,29,10,21,19.40
2008,09,29,10,22,19.40
2008,09,29,10,23,19.50
2008,09,29,10,24,19.60
2008,09,29,10,25,19.60
2008,09,29,10,26,19.70
2008,09,29,10,27,19.70
2008,09,29,10,28,19.80
2008,09,29,10,29,19.80
2008,09,29,10,30,19.90
2008,09,29,10,31,19.90
2008,09,29,10,32,19.90
2008,09,29,10,33,19.90
2008,09,29,10,34,20.00
2008,09,29,10,35,20.10
2008,09,29,10,36,20.10
2008,09,29,10,37,20.10
2008,09,29,10,38,20.10
2008,09,29,10,39,20.20
2008,09,29,10,40,20.20
2008,09,29,10,41,20.20
2008,09,29,10,42,20.20
2008,09,29,10,43,20.30
2008,09,29,10,44,20.40
2008,09,29,10,45,20.40
2008,09,29,10,46,20.40
2008,09,29,10,47,20.40
2008,09,29,10,48,20.40
2008,09,29,10,49,20.40
2008,09,29,10,50,20.30
2008,09,29,10,51,20.30
2008,09,29,10,52,20.30
2008,09,29,10,53,20.20
2008,09,29,10,54,20.20
2008,09,29,10,55,20.20
2008,09,29,10,56,20.30
2008,09,29,10,57,20.30
2008,09,29,10,58,20.30
2008,09,29,10,59,20.40
2008,09,29,11,00,20.50
2008,09,29,11,01,20.50
2008,09,29,11,02,20.60
2008,09,29,11,03,20.70
2008,09,29,11,04,20.80
2008,09,29,11,05,20.90
2008,09,29,11,06,20.90
2008,09,29,11,07,20.90
2008,09,29,11,08,20.90
2008,09,29,11,09,20.90
2008,09,29,11,10,20.90
2008,09,29,11,11,20.90
2008,09,29,11,12,20.90
2008,09,29,11,13,20.90
2008,09,29,11,14,20.80
2008,09,29,11,15,20.80
2008,09,29,11,16,20.80
2008,09,29,11,17,20.80
2008,09,29,11,18,20.70
2008,09,29,11,19,20.70
2008,09,29,11,20,20.70
2008,09,29,11,21,20.70
2008,09,29,11,22,20.70
2008,09,29,11,23,20.70
2008,09,29,11,24,20.70
2008,09,29,11,25,20.70
2008,09,29,11,26,20.70
2008,09,29,11,27,20.80
2008,09,29,11,28,20.80
2008,09,29,11,29,20.90
2008,09,29,11,30,20.90
2008,09,29,11,31,21.00
2008,09,29,11,32,21.00
2008,09,29,11,33,21.00
2008,09,29,11,34,21.00
2008,09,29,11,35,21.00
2008,09,29,11,36,21.00
2008,09,29,11,37,21.00
2008,09,29,11,38,20.90
2008,09,29,11,39,20.90
2008,09,29,11,40,20.90
2008,09,29,11,41,20.90
2008,09,29,11,42,20.90
2008,09,29,11,43,20.90
2008,09,29,11,44,20.90
2008,09,29,11,45,21.00
2008,09,29,11,46,21.00
2008,09,29,11,47,21.10
2008,09,29,11,48,21.10
2008,09,29,11,49,21.20
2008,09,29,11,50,21.30
2008,09,29,11,51,21.30
2008,09,29,11,52,21.30
2008,09,29,11,53,21.30
2008,09,29,11,54,21.30
2008,09,29,11,55,21.30
2008,09,29,11,56,21.30
2008,09,29,11,57,21.40
2008,09,29,11,58,21.30
2008,09,29,11,59,21.30
2008,09,29,12,00,21.30
2008,09,29,12,01,21.30
2008,09,29,12,02,21.40
2008,09,29,12,03,21.50
2008,09,29,12,04,21.60
2008,09,29,12,05,21.60
2008,09,29,12,06,21.60
2008,09,29,12,07,21.70
2008,09,29,12,08,21.60
2008,09,29,12,09,21.60
2008,09,29,12,10,21.60
2008,09,29,12,11,21.60
2008,09,29,12,12,21.60
2008,09,29,12,13,21.60
2008,09,29,12,14,21.60
2008,09,29,12,15,21.60
2008,09,29,12,16,21.60
2008,09,29,12,17,21.60
2008,09,29,12,18,21.60
2008,09,29,12,19,21.60
2008,09,29,12,20,21.60
2008,09,29,12,21,21.60
2008,09,29,12,22,21.60
2008,09,29,12,23,21.60
2008,09,29,12,24,21.60
2008,09,29,12,25,21.60
2008,09,29,12,26,21.70
2008,09,29,12,27,21.80
2008,09,29,12,28,21.80
2008,09,29,12,29,21.90
2008,09,29,12,30,21.90
2008,09,29,12,31,22.00
2008,09,29,12,32,22.00
2008,09,29,12,33,22.00
2008,09,29,12,34,22.10
2008,09,29,12,35,22.00
2008,09,29,12,36,22.00
2008,09,29,12,37,22.10
2008,09,29,12,38,22.10
2008,09,29,12,39,22.10
2008,09,29,12,40,22.20
2008,09,29,12,41,22.30
2008,09,29,12,42,22.30
2008,09,29,12,43,22.30
2008,09,29,12,44,22.40
2008,09,29,12,45,22.40
2008,09,29,12,46,22.50
2008,09,29,12,47,22.50
2008,09,29,12,48,22.50
2008,09,29,12,49,22.60
2008,09,29,12,50,22.70
2008,09,29,12,51,22.80
2008,09,29,12,52,22.90
2008,09,29,12,53,22.90
2008,09,29,12,54,23.00
2008,09,29,12,55,23.10
2008,09,29,12,56,23.10
2008,09,29,12,57,23.20
2008,09,29,12,58,23.20
2008,09,29,12,59,23.20
2008,09,29,13,00,23.30
2008,09,29,13,01,23.30
2008,09,29,13,02,23.30
2008,09,29,13,03,23.30
2008,09,29,13,04,23.30
2008,09,29,13,05,23.20
2008,09,29,13,06,23.20
2008,09,29,13,07,23.20
2008,09,29,13,08,23.20
2008,09,29,13,09,23.30
2008,09,29,13,10,23.20
2008,09,29,13,11,23.20
2008,09,29,13,12,23.10
2008,09,29,13,13,23.10
2008,09,29,13,14,22.90
2008,09,29,13,15,22.90
2008,09,29,13,16,22.90
2008,09,29,13,17,22.90
2008,09,29,13,18,22.90
2008,09,29,13,19,22.90
2008,09,29,13,20,22.90
2008,09,29,13,21,23.00
2008,09,29,13,22,23.10
2008,09,29,13,23,23.10
2008,09,29,13,24,23.20
2008,09,29,13,25,23.20
2008,09,29,13,26,23.20
2008,09,29,13,27,23.20
2008,09,29,13,28,23.20
2008,09,29,13,29,23.20
2008,09,29,13,30,23.10
2008,09,29,13,31,23.00
2008,09,29,13,32,22.90
2008,09,29,13,33,22.90
2008,09,29,13,34,22.90
2008,09,29,13,35,22.90
2008,09,29,13,36,22.90
2008,09,29,13,37,22.90
2008,09,29,13,38,22.90
2008,09,29,13,39,23.00
2008,09,29,13,40,23.10
2008,09,29,13,41,23.10
2008,09,29,13,42,23.10
2008,09,29,13,43,22.90
2008,09,29,13,44,22.90
2008,09,29,13,45,22.90
2008,09,29,13,46,22.90
2008,09,29,13,47,22.80
2008,09,29,13,48,22.80
2008,09,29,13,49,22.70
2008,09,29,13,50,22.70
2008,09,29,13,51,22.70
2008,09,29,13,52,22.70
2008,09,29,13,53,22.70
2008,09,29,13,54,22.70
2008,09,29,13,55,22.70
2008,09,29,13,56,22.70
2008,09,29,13,57,22.70
2008,09,29,13,58,22.80
2008,09,29,13,59,22.90
2008,09,29,14,00,22.90
2008,09,29,14,01,22.90
2008,09,29,14,02,22.90
2008,09,29,14,03,22.90
2008,09,29,14,04,22.90
2008,09,29,14,05,22.90
2008,09,29,14,06,22.80
2008,09,29,14,07,22.80
2008,09,29,14,08,22.80
2008,09,29,14,09,22.80
2008,09,29,14,10,22.80
2008,09,29,14,11,22.80
2008,09,29,14,12,22.80
2008,09,29,14,13,22.80
2008,09,29,14,14,22.80
2008,09,29,14,15,22.80
2008,09,29,14,16,22.90
2008,09,29,14,17,22.90
2008,09,29,14,18,23.00
2008,09,29,14,19,23.10
2008,09,29,14,20,23.10
2008,09,29,14,21,23.10
2008,09,29,14,22,23.10
2008,09,29,14,23,22.90
2008,09,29,14,24,22.90
2008,09,29,14,25,22.90
2008,09,29,14,26,22.90
2008,09,29,14,27,23.00
2008,09,29,14,28,23.10
2008,09,29,14,29,23.20
2008,09,29,14,30,23.20
2008,09,29,14,31,23.30
2008,09,29,14,32,23.30
2008,09,29,14,33,23.30
2008,09,29,14,34,23.30
2008,09,29,14,35,23.30
2008,09,29,14,36,23.30
2008,09,29,14,37,23.30
2008,09,29,14,38,23.30
2008,09,29,14,39,23.30
2008,09,29,14,40,23.30
2008,09,29,14,41,23.30
2008,09,29,14,42,23.40
2008,09,29,14,43,23.50
2008,09,29,14,44,23.60
2008,09,29,14,45,23.60
2008,09,29,14,46,23.50
2008,09,29,14,47,23.40
2008,09,29,14,48,23.40
2008,09,29,14,49,23.40
2008,09,29,14,50,23.50
2008,09,29,14,51,23.50
2008,09,29,14,52,23.40
2008,09,29,14,53,23.40
2008,09,29,14,54,23.40
2008,09,29,14,55,23.40
2008,09,29,14,56,23.40
2008,09,29,14,57,23.40
2008,09,29,14,58,23.30
2008,09,29,14,59,23.30
2008,09,29,15,00,23.30
2008,09,29,15,01,23.40
2008,09,29,15,02,23.40
2008,09,29,15,03,23.30
2008,09,29,15,04,23.40
2008,09,29,15,05,23.40
2008,09,29,15,06,23.40
2008,09,29,15,07,23.40
2008,09,29,15,08,23.40
2008,09,29,15,09,23.40
2008,09,29,15,10,23.40
2008,09,29,15,11,23.40
2008,09,29,15,12,23.60
2008,09,29,15,13,23.60
2008,09,29,15,14,23.70
2008,09,29,15,15,23.70
2008,09,29,15,16,23.70
2008,09,29,15,17,23.70
2008,09,29,15,18,23.70
2008,09,29,15,19,23.70
2008,09,29,15,20,23.70
2008,09,29,15,21,23.70
2008,09,29,15,22,23.70
2008,09,29,15,23,23.70
2008,09,29,15,24,23.70
2008,09,29,15,25,23.70
2008,09,29,15,26,23.70
2008,09,29,15,27,23.70
2008,09,29,15,28,23.70
2008,09,29,15,29,23.70
2008,09,29,15,30,23.70
2008,09,29,15,31,23.70
2008,09,29,15,32,23.70
2008,09,29,15,33,23.70
2008,09,29,15,34,23.70
2008,09,29,15,35,23.70
2008,09,29,15,36,23.70
2008,09,29,15,37,23.70
2008,09,29,15,38,23.70
2008,09,29,15,39,23.70
2008,09,29,15,40,23.70
2008,09,29,15,41,23.70
2008,09,29,15,42,23.70
2008,09,29,15,43,23.60
2008,09,29,15,44,23.60
2008,09,29,15,45,23.60
2008,09,29,15,46,23.60
2008,09,29,15,47,23.60
2008,09,29,15,48,23.70
2008,09,29,15,49,23.70
2008,09,29,15,50,23.70
2008,09,29,15,51,23.70
2008,09,29,15,52,23.70
2008,09,29,15,53,23.70
2008,09,29,15,54,23.70
2008,09,29,15,55,23.70
2008,09,29,15,56,23.70
2008,09,29,15,57,23.70
2008,09,29,15,58,23.70
2008,09,29,15,59,23.70
2008,09,29,16,00,23.70
2008,09,29,16,01,23.80
2008,09,29,16,02,23.80
2008,09,29,16,03,23.90
2008,09,29,16,04,23.90
2008,09,29,16,05,24.00
2008,09,29,16,06,24.10
2008,09,29,16,07,24.10
2008,09,29,16,08,24.10
2008,09,29,16,09,24.10
2008,09,29,16,10,24.20
2008,09,29,16,11,24.20
2008,09,29,16,12,24.10
2008,09,29,16,13,24.10
2008,09,29,16,14,24.10
2008,09,29,16,15,24.10
2008,09,29,16,16,24.10
2008,09,29,16,17,24.10
2008,09,29,16,18,24.10
2008,09,29,16,19,24.10
2008,09,29,16,20,24.10
2008,09,29,16,21,24.10
2008,09,29,16,22,24.10
2008,09,29,16,23,24.10
2008,09,29,16,24,24.10
2008,09,29,16,25,24.20
2008,09,29,16,26,24.20
2008,09,29,16,27,24.20
2008,09,29,16,28,24.20
2008,09,29,16,29,24.20
2008,09,29,16,30,24.20
2008,09,29,16,31,24.20
2008,09,29,16,32,24.20
2008,09,29,16,33,24.10
2008,09,29,16,34,24.10
2008,09,29,16,35,24.10
2008,09,29,16,36,24.10
2008,09,29,16,37,24.10
2008,09,29,16,38,24.10
2008,09,29,16,39,24.10
2008,09,29,16,40,24.10
2008,09,29,16,41,24.10
2008,09,29,16,42,24.10
2008,09,29,16,43,24.10
2008,09,29,16,44,24.00
2008,09,29,16,45,24.00
2008,09,29,16,46,24.10
2008,09,29,16,47,24.00
2008,09,29,16,48,23.90
2008,09,29,16,49,23.90
2008,09,29,16,50,23.90
2008,09,29,16,51,23.80
2008,09,29,16,52,23.80
2008,09,29,16,53,23.70
2008,09,29,16,54,23.60
2008,09,29,16,55,23.50
2008,09,29,16,56,23.40
2008,09,29,16,57,23.30
2008,09,29,16,58,23.30
2008,09,29,16,59,23.30
2008,09,29,17,00,23.30
2008,09,29,17,01,23.30
2008,09,29,17,02,23.20
2008,09,29,17,03,23.20
2008,09,29,17,04,23.20
2008,09,29,17,05,23.10
2008,09,29,17,06,23.10
2008,09,29,17,07,23.00
2008,09,29,17,08,22.90
2008,09,29,17,09,22.80
2008,09,29,17,10,22.70
2008,09,29,17,11,22.60
2008,09,29,17,12,22.50
2008,09,29,17,13,22.40
2008,09,29,17,14,22.30
2008,09,29,17,15,22.20
2008,09,29,17,16,22.10
2008,09,29,17,17,22.00
2008,09,29,17,18,21.90
2008,09,29,17,19,21.80
2008,09,29,17,20,21.80
2008,09,29,17,21,21.70
2008,09,29,17,22,21.60
2008,09,29,17,23,21.60